Wind_Speed
25 26 27 27 26 26 26 27 28 29 30 31 32 34 34 33 34 36 37 39 39 38 37 37 36 40 43 44 44 44 45 46 47 48 49 51 53 53 54 54 55 56 56 58 58 58 59 61 63 64 64 65 66 67 67 68 70 71 73 73 73 71 68 66 63 58 56 53 49 45 42 38 36 35 34 35 38 42 46 47 46 47 49 51 55 61
26 28 28 28 27 27 28 29 30 31 32 33 34 35 36 36 35 36 37 39 41 40 39 38 37 39 43 44 44 44 45 46 47 49 50 51 53 53 54 55 55 56 56 57 58 59 59 60 62 63 64 64 65 66 67 68 68 70 71 72 73 72 70 68 64 60 56 53 49 44 40 36 32 31 30 29 30 34 40 44 44 44 45 46 49 52
28 29 28 28 28 29 30 31 33 34 35 35 36 36 37 38 37 36 37 39 42 41 41 40 38 38 42 44 44 44 46 47 48 49 50 51 52 54 54 55 55 56 56 57 58 59 59 60 61 62 63 64 65 66 66 67 68 69 70 72 73 72 70 68 65 61 57 53 49 45 40 34 30 28 26 25 25 28 32 36 39 41 42 43 45 48
29 29 30 30 30 31 31 33 35 36 37 38 38 38 38 38 38 38 37 38 41 42 42 43 40 38 41 44 44 45 46 47 48 49 50 51 52 54 54 55 56 56 56 57 58 59 59 59 60 61 62 63 64 65 66 67 67 68 69 70 72 72 70 69 66 62 57 54 50 45 41 35 30 27 25 23 22 23 25 27 31 35 38 40 42 44
30 31 31 32 32 32 33 34 35 36 38 38 38 39 38 38 39 40 39 38 39 41 42 44 42 38 41 44 44 45 47 47 48 49 50 52 53 54 54 55 56 56 57 57 58 59 59 59 59 60 62 63 64 65 66 66 67 67 68 69 70 71 70 69 66 62 57 54 51 46 41 36 32 28 25 23 22 21 21 22 25 29 33 36 38 41
32 32 32 33 33 34 35 35 36 37 37 38 38 39 39 40 40 40 40 39 38 40 42 44 44 42 42 44 45 46 47 47 48 49 50 52 53 54 54 55 55 56 57 57 57 58 58 59 59 60 61 62 63 64 65 66 66 66 67 68 69 70 70 69 66 60 57 54 51 47 42 37 33 31 27 24 23 22 21 21 22 24 28 31 34 37
33 33 34 35 35 36 37 37 38 38 38 38 39 40 41 41 41 41 41 40 38 39 42 43 45 45 42 44 45 45 47 47 48 49 51 53 53 53 54 54 55 56 56 57 56 57 58 58 59 59 61 62 63 63 65 65 65 66 66 67 68 68 69 69 65 59 57 54 50 47 43 38 33 31 29 27 25 24 23 22 22 23 24 26 29 32
34 35 35 36 37 38 39 40 40 39 39 39 40 41 42 41 43 43 41 40 38 39 41 41 44 46 44 44 44 44 46 47 48 50 51 53 53 53 54 54 55 55 56 56 56 56 57 58 59 59 60 61 62 63 64 65 65 65 65 66 66 67 68 68 65 61 58 55 50 47 44 40 35 32 29 28 27 26 25 25 24 24 24 25 26 28
35 36 37 37 38 39 41 42 42 42 42 42 42 43 44 44 44 45 42 41 39 39 40 41 44 47 44 43 44 44 45 47 48 50 51 52 52 52 53 54 55 55 56 56 55 55 57 58 59 59 60 61 61 62 63 64 64 64 65 65 65 66 66 66 65 62 60 56 51 47 44 42 38 34 30 29 28 27 27 26 26 25 25 25 26 27
36 37 38 38 39 40 42 43 43 43 44 44 44 45 45 46 46 45 44 42 40 39 40 41 44 46 44 43 44 44 45 47 48 49 50 52 52 52 54 55 55 56 56 56 56 56 57 58 60 60 60 60 61 62 62 63 64 64 64 64 64 64 65 65 64 63 60 57 52 48 44 42 40 37 33 30 28 28 27 27 27 26 26 26 26 26
37 37 38 39 40 41 42 43 44 45 46 46 47 46 47 47 47 47 45 44 42 40 41 42 44 46 45 44 44 43 45 47 48 49 50 51 51 52 54 55 55 56 56 56 56 57 58 58 60 61 61 61 61 61 61 62 63 63 63 63 63 63 63 63 63 63 60 57 53 49 45 42 39 38 36 32 30 28 28 27 27 27 27 26 26 26
37 38 39 39 40 42 43 43 44 45 46 47 48 49 49 49 48 48 47 47 45 42 42 43 44 45 45 45 43 43 45 47 48 49 50 51 51 52 54 55 55 56 56 57 57 58 59 59 60 61 61 61 61 61 61 61 62 62 62 62 62 61 61 62 62 62 60 57 53 49 45 42 39 37 36 34 32 30 29 28 28 28 27 27 27 27
38 38 39 40 41 42 43 44 45 45 46 47 49 50 50 50 50 50 49 49 47 43 42 42 42 44 44 43 42 43 45 47 48 49 50 50 51 53 54 55 55 56 56 57 58 59 59 60 60 61 61 61 61 61 61 61 61 61 61 61 61 60 60 60 61 61 60 57 54 50 45 43 40 37 35 34 33 32 30 29 29 28 28 28 28 28
39 39 40 42 43 44 44 45 46 46 47 48 49 51 52 52 52 51 50 48 46 43 40 39 40 43 42 41 42 44 46 47 49 49 50 50 51 53 54 54 55 56 57 58 59 60 60 60 61 61 61 62 61 61 60 60 60 60 60 60 60 59 59 59 59 59 59 57 54 50 46 42 40 37 35 33 32 32 31 30 29 28 28 28 28 29
41 42 43 44 45 45 46 46 47 47 48 48 49 50 51 51 50 49 48 47 46 43 39 37 39 43 42 41 42 45 46 48 49 50 50 51 52 53 54 55 56 57 58 59 60 60 60 60 60 61 62 62 61 61 60 60 60 59 59 59 59 58 58 58 58 58 58 56 54 51 46 42 40 37 35 33 31 30 30 30 30 29 28 28 28 28
42 43 44 45 45 45 46 46 46 47 47 47 48 48 49 48 48 47 46 45 46 44 40 37 39 43 42 41 43 46 47 49 50 50 51 51 52 53 54 55 56 57 58 59 60 61 61 61 61 61 62 62 62 61 61 60 59 59 59 58 58 57 57 56 56 56 56 56 54 51 48 43 40 37 35 33 31 29 28 28 29 29 28 27 28 28
42 43 44 45 45 46 46 47 46 46 47 46 46 47 48 48 47 46 45 44 45 45 42 38 40 44 43 42 45 48 49 50 51 51 51 52 53 54 55 56 57 58 59 60 61 62 62 62 61 61 62 62 62 61 61 60 59 59 58 57 57 56 56 55 55 55 55 55 53 52 49 45 40 37 35 33 31 29 28 27 27 28 27 27 27 28
43 43 44 45 45 46 47 47 46 46 46 46 46 46 47 47 46 45 45 45 45 46 44 41 42 46 46 45 47 49 50 51 52 52 52 52 53 54 55 56 57 58 60 61 62 63 63 63 63 62 62 61 61 61 61 61 59 58 58 57 56 55 55 54 54 53 53 53 53 51 50 47 42 38 35 33 31 29 28 27 26 26 26 26 26 27
44 44 44 45 46 47 48 47 46 45 46 46 46 46 46 46 45 44 45 46 46 47 48 45 43 45 48 48 48 50 50 51 52 52 52 52 54 54 55 56 58 59 60 61 63 63 64 64 64 63 63 62 61 61 62 61 60 59 58 57 56 55 54 53 52 52 52 52 52 51 50 48 44 40 36 33 31 29 28 27 26 26 26 25 26 26
45 45 45 46 48 48 48 47 45 45 45 45 45 45 44 45 45 44 45 46 46 47 49 49 45 44 48 50 49 50 50 50 52 52 51 52 53 54 55 57 58 59 61 62 63 64 65 65 65 65 64 63 62 61 61 61 61 59 58 57 56 55 53 52 51 51 51 51 51 51 50 48 46 42 38 35 31 29 28 27 26 25 25 25 25 25
46 46 46 46 47 47 47 47 45 44 45 44 44 44 43 44 44 44 44 44 46 46 49 51 47 45 48 51 50 50 50 49 51 52 51 52 53 54 56 58 59 60 61 62 63 64 65 66 66 66 65 64 63 62 61 61 61 60 58 57 56 55 53 52 51 50 49 49 50 50 50 48 46 44 41 37 33 30 28 27 26 25 25 24 24 24
46 47 47 46 47 46 46 46 44 43 43 43 43 43 42 43 43 44 45 45 46 46 47 50 49 46 48 51 50 50 50 49 51 52 52 52 53 55 57 59 60 61 62 63 64 65 65 66 67 66 66 65 64 63 62 61 60 60 59 58 56 55 54 52 51 49 48 48 48 49 49 48 47 45 42 39 36 32 28 27 26 25 25 25 24 23
47 47 47 46 46 45 44 44 43 42 42 42 42 42 41 41 42 44 45 46 46 46 47 50 49 46 49 52 51 50 50 49 51 53 54 54 54 56 58 60 61 62 63 64 64 65 65 66 67 67 66 65 64 63 62 61 60 60 59 58 56 55 54 52 50 49 48 47 47 47 48 48 47 45 43 40 38 35 31 28 26 26 25 25 24 23
47 47 47 46 45 43 41 43 43 41 41 42 42 43 41 41 42 42 45 46 47 46 48 50 50 47 50 53 51 51 51 50 52 54 56 57 56 57 59 61 62 63 63 64 64 65 65 66 67 67 66 66 65 63 62 61 60 60 59 59 57 56 54 53 51 49 47 46 46 46 46 47 47 45 43 41 39 37 34 30 28 26 26 26 25 24
46 47 47 46 46 45 43 44 44 44 44 44 43 43 42 41 42 42 44 47 47 47 47 50 51 48 49 52 52 52 53 52 53 55 57 59 59 59 60 61 63 63 64 65 65 65 65 66 67 67 67 66 65 64 62 61 60 60 59 59 58 56 55 53 51 49 47 46 45 45 45 46 46 45 44 42 40 38 36 33 30 27 26 26 26 25
45 45 45 44 44 46 44 43 44 44 43 43 42 42 41 41 42 43 44 47 49 48 46 49 53 51 49 51 51 52 54 54 54 56 58 60 61 60 61 62 63 64 65 65 65 65 65 66 67 67 67 66 65 64 62 61 60 60 59 58 58 57 55 54 52 50 47 46 45 45 45 45 45 45 44 43 41 39 37 34 32 29 28 27 27 26
44 44 43 40 39 41 40 38 40 40 40 41 41 40 40 40 41 42 45 47 51 51 47 48 53 55 53 53 52 52 54 55 55 57 59 61 62 61 61 63 64 65 65 66 65 65 65 66 67 67 67 66 64 63 62 61 60 59 59 58 58 57 56 54 53 50 47 46 45 44 44 44 44 44 44 43 42 40 38 35 33 31 29 27 27 27
43 42 42 38 35 37 38 36 37 39 39 40 40 39 39 40 40 42 44 48 51 53 52 50 52 55 57 56 55 54 55 56 57 58 59 62 62 62 63 64 65 66 66 66 65 65 65 66 67 67 67 65 63 62 62 61 61 59 59 58 58 57 56 54 53 51 48 45 44 43 43 43 43 43 43 43 42 41 39 36 34 33 31 29 28 27
43 41 40 38 34 34 37 37 37 38 39 39 41 40 39 39 40 42 45 49 52 54 54 53 53 54 57 58 57 56 56 57 57 58 59 62 63 63 64 66 67 68 67 67 66 65 65 66 67 67 66 65 63 62 62 62 61 60 59 58 57 57 56 55 53 51 48 45 43 42 42 42 42 42 43 43 42 41 40 37 35 33 33 31 29 28
42 40 40 39 35 33 36 37 37 38 38 38 40 40 40 39 40 43 46 50 53 55 55 56 56 55 56 59 59 57 56 56 57 58 60 63 65 64 65 67 69 69 68 68 67 66 66 67 67 67 66 64 62 62 62 61 62 61 60 59 58 57 56 55 54 52 49 47 44 42 41 42 42 42 42 42 42 42 40 38 36 34 33 32 31 30
41 40 40 40 37 33 35 36 37 38 38 38 39 40 41 40 39 42 46 50 54 57 56 57 58 57 57 59 60 59 58 57 57 58 61 64 67 66 66 68 70 71 70 69 68 67 66 67 68 67 66 64 62 61 61 61 62 61 61 60 58 57 57 56 55 52 50 48 45 42 41 41 41 41 41 41 41 42 41 39 37 35 34 32 31 31
40 40 40 41 38 35 35 36 35 36 36 37 39 39 40 41 41 41 45 50 54 56 56 56 57 58 58 59 61 61 61 60 58 58 61 65 68 69 68 69 71 72 72 71 70 68 66 66 67 67 66 64 63 62 61 61 61 61 61 61 59 58 57 56 55 53 50 48 45 43 41 40 40 40 40 40 41 41 41 40 38 36 34 33 32 31
39 39 39 40 39 35 35 35 33 33 34 36 39 40 40 43 44 42 44 49 52 54 55 55 56 57 58 60 62 63 64 64 61 59 61 66 69 70 71 72 73 74 74 73 72 70 67 66 67 67 66 65 64 63 62 62 62 61 61 60 59 58 57 57 56 54 51 48 46 43 41 40 39 39 39 40 40 40 41 41 39 37 35 34 32 31
38 39 38 39 38 35 33 33 30 30 33 37 40 41 42 44 46 45 44 47 51 52 53 55 56 57 59 62 64 66 67 67 66 62 62 67 71 72 73 74 75 76 76 75 73 72 70 68 68 68 68 66 65 64 64 63 62 62 61 60 59 58 57 57 56 55 51 48 46 44 42 40 39 39 38 39 39 40 40 41 40 39 36 35 33 31
36 37 37 37 37 34 31 31 30 29 32 38 42 42 43 44 48 50 48 46 50 53 54 57 58 59 61 63 65 68 69 70 69 66 65 69 73 75 76 76 77 78 78 77 76 75 73 71 71 71 70 68 66 65 65 64 63 62 61 60 59 58 57 56 56 55 52 49 46 44 42 40 39 38 38 38 38 39 40 40 41 40 38 36 34 32
35 35 36 36 36 34 32 32 33 31 32 38 43 44 45 46 50 55 53 49 51 55 57 60 60 61 63 65 66 69 71 72 71 69 69 73 76 77 78 79 79 79 79 79 79 78 78 76 75 74 73 71 68 66 66 65 64 63 62 61 59 57 56 56 55 55 53 49 46 44 42 40 39 38 37 37 37 38 38 40 40 40 39 38 35 33
33 33 34 35 35 35 35 34 35 36 36 41 47 47 48 50 53 58 57 53 54 57 60 63 64 64 66 68 69 71 73 73 72 70 71 75 76 77 79 79 80 81 81 81 82 82 81 80 78 77 75 73 70 67 66 66 65 63 62 61 59 57 56 55 55 54 53 50 47 44 42 40 38 38 37 36 36 37 37 38 39 40 40 39 37 34
32 32 34 35 35 36 38 38 40 41 43 47 51 51 51 53 55 58 60 57 57 59 62 65 67 68 70 71 72 74 75 76 74 71 72 75 76 77 79 79 80 82 82 83 83 83 83 82 80 78 77 75 72 69 67 66 65 64 62 61 59 57 55 54 54 53 52 50 48 45 42 40 38 37 37 36 36 36 36 37 38 39 40 39 38 36
31 32 33 35 36 38 41 42 43 45 46 49 51 52 53 55 56 60 62 60 59 61 64 67 69 71 72 74 75 76 77 78 76 74 74 76 78 79 80 81 81 82 83 83 84 84 84 83 81 80 78 75 72 70 67 65 66 65 63 61 60 57 54 53 53 52 51 50 48 45 42 40 38 37 36 36 35 35 35 36 37 38 39 39 39 38
31 33 34 36 38 41 43 44 43 44 46 49 51 52 54 57 58 61 64 63 62 63 66 69 70 72 73 75 75 75 76 79 80 79 78 79 80 80 81 82 82 83 83 84 84 84 84 82 81 80 79 76 73 70 67 65 65 65 64 62 60 58 54 52 52 51 50 49 48 46 43 39 37 36 36 35 35 34 34 35 36 37 38 39 39 38
33 34 36 38 40 42 44 44 44 44 46 49 52 53 55 58 59 62 65 65 65 65 67 70 72 72 73 74 75 75 76 79 81 82 81 81 81 81 82 83 83 83 84 84 84 84 84 82 81 79 78 76 74 71 68 64 63 64 64 62 60 58 54 52 51 50 49 48 48 46 43 39 37 35 35 35 34 34 33 34 35 36 37 38 39 38
37 37 38 40 41 42 43 45 46 47 48 50 53 54 56 58 60 62 64 65 66 68 69 70 71 72 72 73 74 76 77 78 79 80 81 81 82 82 82 82 82 82 83 83 83 83 83 82 80 79 77 76 74 73 69 65 62 62 62 60 59 58 55 51 50 49 48 47 47 46 43 40 36 35 34 34 34 34 33 33 34 35 36 37 38 38
39 40 40 41 42 43 44 46 47 49 50 52 54 54 56 58 60 62 64 64 66 68 70 70 70 71 72 73 74 75 76 76 77 78 79 79 80 81 81 82 82 82 82 82 82 82 82 81 79 77 75 74 74 72 70 65 61 60 60 59 58 57 55 52 49 49 48 47 46 46 43 39 36 34 33 33 34 33 33 33 33 34 35 36 37 37
39 40 41 42 43 44 45 46 48 48 49 51 53 55 56 57 59 63 66 66 67 68 69 69 70 70 72 74 74 74 74 75 76 77 79 80 81 82 83 83 84 84 83 82 80 80 79 77 75 74 72 71 71 70 68 63 58 57 58 57 56 56 55 52 49 48 47 47 46 46 43 39 36 34 33 32 33 33 33 32 32 33 34 35 36 36
39 40 41 42 43 44 44 46 48 47 46 48 52 55 57 58 60 63 66 67 67 68 69 71 72 72 72 74 74 75 76 77 78 80 82 83 84 85 86 87 88 87 86 83 81 79 76 74 71 70 68 67 67 66 64 59 55 54 56 56 55 54 54 52 50 48 47 47 46 45 43 39 36 34 32 31 32 32 32 32 32 32 33 34 35 36
39 41 42 42 44 44 44 46 49 49 47 49 53 56 57 59 61 62 64 65 67 69 71 72 73 73 74 75 76 77 78 80 82 83 84 85 86 87 88 90 90 89 88 85 82 79 75 71 68 66 65 64 64 63 60 55 53 54 55 55 54 54 53 51 50 48 47 47 46 45 43 39 36 33 32 31 30 31 31 31 31 32 32 33 34 35
39 42 43 44 45 46 47 49 52 52 51 52 55 56 57 60 61 63 64 66 68 69 70 72 73 74 75 76 78 79 81 82 84 85 85 87 88 89 90 92 91 90 88 86 83 79 74 69 65 64 63 62 62 60 56 53 53 54 54 54 55 55 52 50 49 48 47 46 46 45 42 39 36 33 31 30 29 30 30 30 31 31 31 32 33 33
41 44 45 46 47 49 51 52 55 55 54 54 56 58 59 61 63 64 66 68 69 69 70 71 73 75 77 78 79 81 82 83 85 86 88 89 90 91 92 92 91 90 87 84 82 79 75 69 64 61 60 60 61 58 54 53 54 55 55 55 55 54 51 49 49 48 46 46 46 44 42 39 36 33 31 29 29 29 29 29 30 30 31 31 32 32
44 46 48 50 50 51 53 55 57 58 57 56 59 62 63 65 65 65 66 67 69 70 70 70 72 74 77 79 81 82 83 84 85 88 89 90 91 92 93 92 90 87 84 82 81 79 77 72 65 59 56 56 58 57 54 53 55 56 55 55 55 52 50 48 47 46 45 45 45 44 41 39 36 33 31 29 28 28 28 28 28 29 30 31 31 32
45 47 50 52 53 54 56 59 61 63 62 62 63 64 64 65 66 66 67 68 69 70 71 72 72 74 76 78 81 84 85 86 87 89 90 90 91 92 92 91 88 85 82 82 80 78 76 72 66 59 54 53 55 57 55 53 55 57 55 54 54 52 49 47 46 44 44 44 43 43 41 39 36 33 30 29 28 28 27 27 27 28 28 30 31 31
47 49 52 55 56 58 60 61 63 64 65 64 64 63 63 64 66 66 67 68 69 71 73 75 76 77 78 79 81 85 87 89 89 90 90 90 91 92 91 89 86 84 82 81 80 77 74 71 66 59 54 52 54 56 53 52 56 57 54 52 52 50 48 46 44 43 43 42 42 42 41 38 35 32 30 29 28 27 27 27 27 27 27 28 29 30
Wind_Direction
359 358 358 356 352 347 345 342 339 338 339 339 338 337 336 334 331 332 332 330 331 331 331 334 335 332 331 333 335 334 335 337 338 338 339 340 340 339 339 340 341 342 341 341 341 343 345 345 345 345 345 345 345 346 347 348 349 350 351 352 352 351 351 351 350 346 342 339 336 331 327 322 315 306 296 285 273 263 257 254 253 255 257 258 257 255
360 360 358 354 352 350 347 345 343 342 342 340 339 338 336 334 332 332 331 329 330 331 331 333 336 334 332 333 334 335 336 338 339 339 341 341 340 340 340 341 342 342 341 340 341 343 346 346 345 344 344 344 344 345 347 348 349 350 351 352 352 352 352 353 352 350 346 342 339 336 333 330 325 316 307 298 287 273 262 257 255 255 257 258 259 258
360 358 355 353 352 350 347 346 345 344 343 341 339 338 336 335 333 331 329 329 330 331 331 331 335 336 333 332 334 335 336 338 340 341 341 341 340 340 341 341 341 342 342 341 341 344 346 345 344 343 343 344 344 345 346 347 348 349 351 351 352 352 352 353 354 352 349 345 342 339 336 336 334 328 319 310 300 288 276 266 259 257 257 258 258 258
356 354 352 352 351 349 347 346 345 344 342 341 339 337 335 334 333 332 331 330 330 330 330 330 333 336 333 332 335 336 336 339 340 341 341 341 341 341 342 341 341 342 342 342 342 344 345 345 344 343 343 344 344 345 346 347 348 349 350 351 352 352 352 354 354 353 351 348 345 342 339 338 337 335 330 322 312 301 291 278 267 261 259 259 258 258
352 351 350 349 348 347 346 345 344 342 340 340 337 336 335 334 333 333 332 331 330 329 328 328 330 335 334 334 336 336 337 339 340 341 342 342 342 342 343 342 342 342 343 343 343 344 344 343 343 343 343 344 345 345 345 347 348 348 349 351 351 352 352 354 355 354 353 350 347 343 341 338 336 335 334 330 322 313 302 289 276 267 263 261 260 259
347 347 346 346 345 345 344 343 342 340 339 338 336 336 335 335 335 334 333 333 332 328 327 328 328 333 337 335 336 337 337 339 340 341 342 343 343 344 344 343 342 343 344 345 344 343 343 343 343 344 344 344 345 345 345 346 347 348 349 350 351 352 352 354 355 354 353 352 349 346 343 339 335 332 332 332 327 321 313 300 287 276 269 265 263 261
343 344 343 342 342 342 341 340 340 339 337 336 337 337 337 337 336 335 334 334 333 329 328 328 327 332 337 336 337 338 337 339 340 341 343 343 344 344 344 344 343 344 345 346 345 343 342 342 343 344 344 345 345 345 345 345 347 347 348 349 351 353 353 354 355 354 353 353 352 348 346 342 336 330 328 328 327 324 319 312 302 291 281 273 268 264
342 341 339 338 338 338 338 338 337 336 336 337 339 339 339 338 337 337 336 334 333 330 328 328 327 331 336 337 338 338 338 340 341 342 343 344 344 344 344 344 344 345 346 346 345 343 342 343 344 345 345 345 345 345 345 345 346 347 348 349 350 352 353 354 354 354 353 354 353 350 348 346 340 332 326 324 323 322 319 316 310 302 294 285 278 271
339 337 336 336 335 336 336 335 335 334 336 338 340 339 338 338 338 338 336 334 333 331 328 329 329 331 336 338 339 339 339 340 341 342 343 344 344 344 345 345 345 346 347 347 345 344 343 344 345 345 345 345 345 345 345 345 345 346 347 348 350 352 353 353 354 354 353 354 354 352 350 348 345 339 331 324 320 319 317 316 313 309 302 295 288 281
336 335 334 334 333 333 333 332 333 333 335 337 339 339 338 339 339 337 336 334 334 333 331 331 331 331 336 339 339 340 340 340 341 342 343 343 344 345 345 346 346 347 348 347 346 345 345 345 345 345 345 345 345 345 345 344 345 345 346 348 349 351 352 353 353 353 353 353 353 353 351 349 347 344 339 332 324 319 317 315 313 311 308 303 297 291
333 332 332 332 331 331 331 331 332 333 335 336 337 337 337 338 338 337 336 335 335 335 334 334 333 331 336 340 340 340 340 340 340 342 343 344 344 345 346 347 347 348 348 347 347 347 346 346 345 345 345 345 345 345 344 344 344 345 345 347 348 350 351 352 353 353 353 353 353 352 351 349 348 346 343 340 334 327 321 317 314 312 309 306 303 298
331 331 330 330 329 330 330 331 332 334 335 335 335 336 336 337 337 336 336 336 336 338 337 336 334 332 336 340 340 340 340 340 340 342 343 344 345 346 346 348 348 348 348 348 349 349 348 347 346 345 345 345 345 344 344 344 344 344 344 346 347 348 350 352 352 353 352 352 352 352 350 348 347 345 344 343 340 335 329 323 318 315 311 309 306 303
330 330 330 329 329 330 330 332 333 335 335 335 335 335 335 336 336 336 337 337 337 339 339 338 334 332 337 340 339 340 340 339 340 342 343 344 345 346 347 348 348 349 349 349 350 350 350 349 347 346 345 345 345 344 344 343 343 343 344 344 346 347 349 351 352 353 352 351 351 351 350 348 346 343 342 342 341 339 334 329 325 320 316 312 309 307
329 329 329 329 329 331 331 333 334 334 335 335 335 335 335 337 337 337 338 337 337 340 340 339 334 332 337 341 339 340 340 339 340 342 343 344 346 347 347 348 348 349 349 350 350 351 351 350 348 347 346 345 345 344 343 343 342 342 342 343 344 346 348 349 351 352 352 351 350 350 349 347 345 342 340 340 340 339 336 332 329 326 321 316 311 308
328 328 329 329 330 332 333 334 334 335 335 336 336 336 337 338 338 338 337 336 337 341 342 342 336 332 338 342 340 340 340 339 341 342 343 344 346 346 347 347 348 348 349 350 350 351 351 350 349 348 347 346 345 343 343 342 342 341 342 342 343 345 346 348 350 351 352 351 350 349 348 346 344 341 338 337 338 338 336 333 330 327 324 320 314 309
327 328 329 329 331 332 333 335 335 335 336 336 337 337 338 339 338 338 337 336 337 340 342 344 338 333 338 342 340 340 340 339 341 343 343 344 345 346 346 347 348 348 349 350 350 351 351 350 349 348 348 346 345 344 342 342 341 341 341 341 342 343 344 346 348 350 351 351 350 348 347 346 343 340 337 335 335 336 335 334 331 328 326 323 318 313
327 329 329 330 331 333 334 335 336 336 336 337 338 338 339 339 338 338 337 337 338 339 342 345 340 334 337 342 340 340 341 340 341 343 343 343 344 345 346 347 347 347 349 350 349 350 350 350 349 349 348 347 345 344 343 342 341 340 340 340 341 341 342 344 346 348 350 350 350 349 347 345 343 339 336 333 332 333 333 334 332 330 329 326 322 319
326 329 330 330 332 333 334 335 336 336 337 337 338 339 339 339 339 338 338 339 340 339 340 345 344 338 337 342 342 340 340 341 341 343 343 343 343 344 345 346 346 347 348 349 349 349 349 348 348 348 348 347 344 343 342 342 341 340 340 339 339 340 341 342 344 346 348 349 349 349 347 346 343 339 336 333 331 330 330 331 331 330 331 330 326 323
326 329 331 331 332 334 334 334 336 336 337 337 338 340 340 340 340 340 339 340 341 339 338 342 348 342 337 341 342 339 340 341 341 342 342 343 343 343 344 345 345 346 347 347 347 347 347 347 347 347 347 346 345 343 341 341 341 340 339 339 338 339 339 340 342 344 346 348 348 348 348 346 344 340 336 333 330 327 326 326 328 329 330 331 330 327
326 328 331 332 332 333 333 333 335 336 336 337 338 341 342 340 341 341 341 341 342 341 338 339 348 347 339 340 341 338 339 340 339 340 341 341 342 342 343 344 344 345 346 346 346 346 347 347 347 347 346 345 344 343 341 340 340 339 339 338 337 337 338 338 340 342 344 346 347 348 348 347 344 341 337 334 330 326 324 323 324 325 327 329 332 331
326 328 331 332 332 332 332 333 335 336 335 337 339 342 343 341 341 341 340 341 342 343 341 339 346 349 341 339 340 338 338 339 338 339 339 339 340 341 342 343 343 344 344 344 345 345 346 346 346 346 345 345 344 343 341 340 339 338 338 337 337 336 336 337 338 340 342 344 345 346 347 347 345 342 338 335 331 327 323 321 320 321 322 325 328 331
326 328 330 331 331 331 332 333 335 335 335 338 340 343 343 341 341 340 339 341 342 343 342 339 343 347 340 338 340 338 337 338 336 336 337 338 339 339 340 341 341 341 342 342 344 344 345 346 346 346 345 344 343 342 341 340 338 337 337 336 336 335 335 335 336 338 340 342 343 345 345 346 345 343 339 336 333 328 323 319 318 317 318 320 323 327
326 327 328 330 330 331 332 332 333 334 335 339 341 342 343 341 341 340 339 339 341 342 342 338 339 344 340 338 340 338 337 338 335 334 335 337 338 338 338 338 339 340 340 341 342 344 344 345 345 345 345 344 343 341 341 340 338 337 336 335 335 335 335 334 335 336 337 339 341 342 344 344 344 344 340 336 333 330 324 318 316 315 314 315 318 322
325 326 327 328 329 330 332 331 333 335 337 340 341 341 343 342 340 340 338 337 339 341 342 338 337 342 341 338 339 337 337 338 335 334 335 336 338 338 336 336 337 338 339 340 341 342 343 344 344 344 344 343 342 341 340 339 338 337 335 334 334 334 333 333 334 334 335 336 338 340 342 343 343 344 342 338 333 330 326 319 313 312 311 311 312 316
325 325 326 328 328 328 331 331 332 336 337 339 340 339 341 341 339 339 337 336 336 339 342 338 335 340 341 337 338 337 336 338 336 335 335 335 336 337 335 335 336 337 338 339 340 341 341 342 343 343 343 343 342 341 339 338 337 336 335 334 333 332 332 332 332 332 333 334 335 337 340 341 342 343 342 340 335 331 328 322 314 309 308 308 308 310
325 326 327 329 329 329 332 332 333 336 337 337 337 337 339 340 339 338 337 336 336 338 342 338 332 336 339 337 338 337 335 337 337 336 335 333 334 335 334 334 334 335 337 338 339 339 340 341 342 342 342 342 341 340 339 338 337 335 334 333 332 331 331 331 331 331 332 332 333 335 337 339 341 341 341 341 337 332 329 325 317 309 304 304 305 306
324 326 326 329 330 328 331 333 333 335 336 335 335 335 337 339 338 337 336 337 336 335 339 339 333 333 336 335 336 336 335 337 337 335 334 332 333 334 333 333 333 334 335 336 337 338 338 339 340 340 340 340 340 339 339 338 336 335 334 333 331 331 330 329 330 330 331 331 332 333 334 336 338 339 340 340 338 335 331 327 321 312 305 301 301 303
323 325 325 328 329 326 328 332 332 333 334 333 333 333 335 337 337 336 336 337 335 333 336 338 335 333 334 334 335 336 335 335 335 334 332 331 331 332 332 331 332 332 333 335 335 336 336 337 338 338 339 339 339 339 339 338 336 335 333 332 331 330 329 328 328 329 329 330 330 330 331 333 336 337 339 339 339 336 333 329 324 316 308 301 297 299
322 324 324 326 330 327 327 331 332 332 333 331 331 331 333 336 336 335 335 336 334 332 333 335 335 335 334 332 334 335 334 334 333 332 331 329 330 331 331 330 330 331 332 333 334 334 334 335 336 336 337 338 338 338 338 338 336 335 333 332 330 329 329 328 327 327 328 328 329 329 329 330 333 335 337 338 338 337 334 331 326 320 312 304 297 294
322 324 323 325 330 329 326 329 331 330 330 330 329 330 331 334 335 334 335 336 333 331 332 333 334 335 334 331 332 332 331 332 332 332 330 328 328 330 330 329 329 329 330 331 332 332 332 333 334 335 336 337 338 338 338 337 336 335 333 331 330 329 328 328 326 326 326 327 328 328 328 328 330 333 335 336 337 338 336 333 329 323 317 308 300 293
321 324 324 325 330 331 327 328 331 329 330 330 329 328 329 331 334 334 334 335 331 329 332 332 331 332 332 329 328 328 328 330 331 331 329 327 327 329 329 328 327 328 329 329 330 331 331 331 333 334 335 336 337 337 337 337 336 335 333 331 330 328 328 327 326 325 325 326 327 327 327 327 328 330 333 335 336 337 337 335 331 326 321 314 305 296
322 324 325 325 329 333 328 329 332 331 330 330 327 327 328 329 332 334 334 333 330 328 329 330 329 329 328 326 325 326 327 329 331 331 328 326 326 327 327 327 327 327 328 329 329 329 330 330 332 333 334 336 337 337 337 337 336 335 334 332 330 328 327 326 326 325 324 324 325 326 325 325 326 328 330 333 334 335 336 335 333 329 324 319 312 301
323 324 325 325 329 334 331 331 335 335 333 329 325 326 328 327 328 331 333 331 327 326 327 327 326 326 325 324 325 326 327 328 331 332 329 325 325 326 326 326 326 326 327 328 328 328 329 329 331 332 333 335 336 336 336 336 336 336 334 332 330 328 326 326 325 325 324 323 324 324 324 324 324 325 328 330 332 334 335 335 334 332 328 323 318 309
324 324 325 325 329 335 333 332 337 339 336 330 325 326 327 326 326 328 332 330 325 324 325 325 325 325 325 326 327 327 328 329 331 333 330 326 325 326 326 327 326 327 327 328 327 327 328 329 329 330 332 333 334 335 335 335 335 335 334 333 331 328 326 325 325 324 323 322 322 323 323 323 323 324 325 328 330 332 333 333 334 334 331 327 324 316
323 325 325 325 329 334 334 333 337 343 341 330 324 324 324 325 326 326 329 329 325 324 325 324 325 327 327 327 327 327 328 329 331 333 331 326 326 326 327 328 327 327 328 328 327 327 327 328 328 329 330 332 333 334 334 334 334 333 333 332 331 329 327 325 324 324 323 322 321 321 321 321 322 322 323 325 328 330 331 332 333 334 333 331 328 323
324 326 325 326 329 331 332 334 335 340 341 329 320 321 324 326 327 324 325 329 327 325 325 324 325 327 327 327 328 327 328 329 332 334 331 328 327 328 328 329 328 327 327 327 326 326 326 327 327 328 329 330 331 332 332 332 331 331 331 331 330 329 327 325 323 324 323 322 320 320 320 320 320 321 322 323 325 328 329 330 331 333 334 333 332 328
325 326 325 326 329 329 330 334 333 336 338 328 321 324 327 328 327 322 322 327 328 326 325 324 325 328 328 328 328 328 328 329 331 334 332 328 328 328 328 328 327 326 326 326 325 325 325 325 326 327 327 328 328 329 330 329 329 329 330 329 329 329 328 325 323 323 323 322 320 318 318 319 319 320 320 321 323 325 327 328 330 331 333 334 334 332
324 324 324 325 328 329 330 332 332 334 336 328 324 326 327 325 324 321 321 327 328 327 326 325 327 329 329 329 329 329 329 328 329 332 331 328 328 328 327 326 326 325 325 324 324 323 323 323 324 325 325 326 326 327 327 327 327 327 327 327 327 328 328 325 323 323 323 323 320 317 316 317 318 318 319 320 321 323 325 326 328 330 332 334 335 335
321 322 323 324 327 329 329 331 332 332 331 326 323 325 324 323 323 321 322 327 328 327 326 326 328 329 328 329 329 328 328 328 328 330 330 328 328 327 326 325 325 324 323 322 322 321 321 321 322 322 323 324 324 324 324 325 325 325 325 325 325 326 327 325 323 322 322 322 321 317 315 315 317 318 318 318 319 321 323 325 326 328 330 333 335 336
320 321 324 325 328 328 327 328 330 329 326 323 322 324 323 323 323 322 322 325 327 327 327 326 327 328 328 328 327 327 328 328 328 330 330 328 328 327 325 324 324 323 322 320 319 319 319 319 319 319 320 321 322 321 321 322 322 322 322 322 322 324 325 325 323 322 321 322 321 318 315 314 315 317 317 317 317 319 321 323 324 326 328 331 334 336
320 323 326 327 327 326 325 325 326 325 324 322 322 323 323 322 322 321 322 324 326 327 327 326 327 327 327 327 327 327 329 329 328 329 329 327 326 325 324 323 322 321 320 318 318 317 317 316 316 317 317 318 319 318 318 319 319 319 318 319 319 321 323 324 322 321 321 321 320 318 315 313 314 315 316 316 316 317 319 321 322 324 327 329 332 335
321 326 328 327 325 324 323 324 323 323 324 323 322 323 322 321 321 321 321 323 324 325 326 326 326 327 326 326 327 328 329 329 328 327 326 325 324 324 323 322 321 320 318 317 317 316 315 315 315 316 316 316 316 316 315 316 316 315 314 315 316 318 321 322 322 320 320 319 320 318 315 312 313 314 314 315 315 315 317 319 321 323 325 327 330 334
324 327 326 325 323 322 323 323 322 322 324 323 321 320 319 319 319 319 320 323 325 325 325 325 325 326 326 327 328 327 327 327 326 325 324 324 323 323 323 322 322 320 319 318 317 316 315 315 315 315 315 315 314 314 314 315 315 312 311 312 314 316 318 320 321 320 319 318 318 318 316 312 311 312 313 313 314 314 316 318 320 321 323 325 329 332
325 325 323 322 321 321 322 321 320 321 322 320 318 317 317 318 318 318 320 324 325 324 323 324 326 327 327 326 326 326 326 325 325 325 325 326 326 325 325 325 324 323 321 320 319 317 316 315 315 315 314 314 313 313 314 316 314 310 308 309 311 313 316 318 319 318 317 317 317 317 316 313 311 310 311 312 313 313 315 317 318 319 321 323 327 330
324 321 320 321 320 319 320 318 316 317 319 317 315 315 317 318 318 318 320 322 323 323 324 326 327 328 327 326 325 326 326 326 327 328 328 328 329 329 328 328 327 325 324 323 321 320 318 317 316 315 314 313 313 313 315 317 315 309 306 308 310 312 313 315 317 317 316 316 316 317 317 314 310 309 310 311 312 312 314 315 317 318 319 322 325 328
322 319 318 318 317 317 317 315 314 315 317 316 315 316 317 318 318 318 320 321 323 325 326 327 327 327 326 325 325 327 328 328 329 331 331 331 331 331 330 329 328 327 326 325 324 322 320 318 316 315 314 313 313 314 316 318 314 308 306 308 310 311 311 313 314 315 314 314 315 317 317 315 311 308 308 309 310 311 312 314 315 316 317 320 323 326
320 316 316 316 315 315 315 315 314 316 317 316 316 316 316 317 318 320 322 323 325 326 326 327 326 326 326 326 326 328 330 330 330 332 333 333 333 332 331 330 329 328 328 327 325 323 321 319 317 315 315 315 315 315 318 318 312 307 307 309 309 309 310 311 312 312 312 313 315 317 317 315 311 307 306 307 309 310 311 312 313 314 315 317 321 324
316 315 314 315 315 314 315 315 315 316 316 315 315 315 317 318 320 322 323 324 325 325 326 326 326 325 326 327 327 329 330 331 332 333 334 334 334 333 332 331 330 330 329 328 326 324 322 319 316 314 315 317 317 317 318 317 312 309 309 309 308 309 309 309 309 310 310 311 314 316 317 315 312 307 305 306 307 308 310 311 312 313 314 315 318 321
313 313 313 314 315 314 314 314 314 315 315 316 316 318 320 320 321 322 323 323 323 323 323 324 325 326 327 328 328 329 331 332 333 334 335 336 335 334 333 332 331 331 330 329 327 326 323 320 316 313 312 314 316 316 316 315 313 311 311 310 309 309 309 308 308 308 308 309 312 315 316 315 312 308 304 304 305 307 309 311 311 312 312 313 316 319
311 311 312 314 315 315 315 314 315 316 318 318 318 319 320 320 321 322 322 321 321 322 323 324 326 327 328 328 329 329 331 333 334 335 336 337 335 334 333 332 332 332 331 330 329 327 324 321 318 314 310 310 310 310 311 311 312 313 311 309 309 309 308 308 307 306 306 307 310 314 315 315 312 308 303 303 304 306 308 310 311 311 311 311 313 316
309 310 312 314 316 316 315 315 315 316 317 318 318 319 320 320 320 320 320 320 320 322 325 326 327 327 328 328 329 330 332 334 335 336 337 337 336 334 333 333 332 332 331 331 330 328 326 322 319 315 312 309 307 307 308 311 314 315 312 308 308 309 309 308 307 305 305 306 308 312 314 315 312 308 303 301 302 304 306 309 310 311 311 310 311 314
Height
5824 5822 5819 5817 5815 5813 5811 5809 5806 5803 5799 5796 5793 5789 5785 5782 5778 5774 5770 5766 5763 5760 5756 5753 5749 5743 5737 5733 5730 5726 5721 5716 5711 5705 5699 5693 5687 5681 5676 5670 5663 5657 5651 5644 5638 5632 5624 5615 5608 5601 5595 5588 5582 5575 5567 5560 5552 5544 5536 5528 5520 5512 5504 5495 5487 5480 5473 5466 5460 5454 5448 5444 5439 5435 5432 5431 5431 5432 5432 5434 5435 5436 5436 5437 5438 5438
5823 5820 5818 5816 5814 5811 5809 5806 5803 5800 5796 5793 5790 5786 5782 5779 5775 5771 5767 5763 5759 5756 5752 5749 5746 5740 5734 5730 5726 5722 5717 5712 5707 5700 5694 5689 5683 5678 5672 5666 5660 5654 5648 5641 5634 5627 5619 5612 5605 5599 5593 5587 5580 5572 5565 5558 5550 5542 5534 5526 5518 5510 5501 5492 5484 5477 5470 5463 5457 5452 5446 5441 5437 5432 5429 5427 5426 5425 5425 5427 5430 5431 5432 5432 5432 5432
5821 5819 5817 5815 5812 5809 5807 5804 5800 5797 5793 5790 5786 5783 5779 5775 5772 5768 5764 5760 5756 5752 5748 5745 5742 5738 5731 5727 5723 5718 5713 5708 5702 5696 5691 5685 5680 5674 5668 5662 5656 5650 5644 5637 5630 5623 5616 5609 5603 5597 5591 5584 5577 5569 5562 5555 5548 5540 5532 5523 5515 5507 5498 5490 5482 5474 5467 5460 5455 5450 5444 5440 5435 5431 5427 5425 5423 5422 5421 5422 5425 5426 5427 5427 5427 5427
5820 5818 5815 5813 5810 5807 5804 5801 5797 5793 5790 5787 5783 5780 5776 5773 5769 5766 5762 5757 5752 5748 5745 5741 5739 5736 5730 5724 5720 5715 5709 5704 5698 5693 5687 5682 5676 5670 5664 5658 5652 5646 5640 5634 5626 5618 5612 5607 5601 5594 5588 5581 5574 5567 5559 5552 5545 5537 5530 5521 5513 5505 5497 5488 5480 5472 5464 5457 5452 5447 5443 5438 5434 5430 5427 5424 5422 5420 5419 5418 5419 5420 5421 5421 5421 5421
5818 5816 5813 5811 5808 5805 5802 5798 5795 5791 5787 5784 5781 5777 5774 5770 5766 5763 5759 5755 5750 5745 5742 5738 5736 5734 5727 5721 5716 5710 5705 5700 5694 5689 5684 5678 5672 5666 5660 5654 5648 5642 5636 5629 5622 5615 5609 5604 5598 5592 5585 5579 5572 5564 5556 5550 5543 5535 5528 5520 5512 5504 5495 5487 5478 5470 5462 5456 5450 5445 5440 5435 5431 5429 5426 5423 5420 5418 5417 5416 5415 5415 5416 5416 5416 5416
5817 5814 5812 5809 5806 5803 5800 5796 5793 5789 5785 5782 5779 5775 5771 5767 5763 5759 5756 5752 5748 5743 5739 5734 5731 5729 5724 5716 5712 5706 5700 5695 5690 5685 5680 5674 5668 5662 5657 5651 5645 5639 5632 5626 5619 5612 5606 5601 5596 5589 5582 5575 5568 5561 5554 5547 5541 5533 5526 5518 5510 5501 5493 5485 5475 5467 5461 5456 5449 5444 5439 5434 5429 5426 5424 5422 5419 5417 5415 5413 5412 5411 5411 5411 5411 5410
5815 5812 5810 5807 5804 5801 5797 5794 5790 5787 5783 5780 5776 5772 5768 5764 5760 5756 5752 5748 5745 5740 5736 5731 5726 5724 5721 5713 5708 5702 5696 5691 5686 5681 5676 5670 5664 5659 5653 5648 5642 5636 5629 5622 5616 5610 5604 5599 5593 5586 5579 5573 5566 5559 5552 5545 5538 5531 5524 5516 5508 5499 5491 5482 5474 5467 5462 5455 5448 5442 5438 5433 5429 5425 5422 5419 5417 5415 5412 5411 5409 5407 5407 5406 5406 5405
5813 5810 5807 5805 5801 5798 5795 5791 5788 5784 5781 5777 5773 5769 5765 5761 5757 5753 5748 5745 5742 5737 5732 5728 5722 5719 5716 5710 5704 5699 5693 5688 5682 5677 5672 5666 5661 5656 5651 5645 5639 5633 5626 5619 5614 5608 5602 5596 5590 5583 5577 5570 5563 5557 5549 5542 5536 5529 5521 5514 5506 5498 5490 5481 5473 5467 5461 5454 5447 5441 5436 5432 5428 5424 5421 5418 5415 5413 5410 5408 5406 5404 5403 5402 5401 5401
5811 5808 5805 5802 5799 5795 5792 5788 5785 5781 5778 5774 5770 5766 5762 5758 5754 5749 5745 5741 5739 5734 5729 5725 5719 5714 5711 5706 5701 5696 5690 5685 5679 5674 5669 5664 5659 5654 5648 5642 5636 5630 5623 5617 5612 5606 5600 5593 5586 5580 5574 5567 5560 5553 5547 5540 5533 5526 5519 5512 5505 5497 5489 5481 5473 5467 5460 5453 5446 5441 5435 5430 5426 5423 5419 5416 5413 5410 5408 5406 5403 5401 5399 5398 5397 5396
5809 5806 5803 5799 5796 5792 5789 5786 5782 5778 5774 5771 5767 5763 5759 5756 5751 5747 5743 5738 5735 5731 5725 5720 5715 5710 5707 5703 5697 5692 5687 5682 5677 5672 5667 5662 5657 5651 5645 5639 5633 5626 5620 5615 5610 5604 5597 5590 5583 5577 5571 5564 5557 5550 5544 5537 5530 5523 5517 5510 5503 5495 5488 5481 5473 5466 5459 5452 5445 5439 5434 5429 5425 5421 5418 5414 5411 5408 5406 5403 5401 5399 5396 5394 5393 5391
5807 5804 5800 5797 5793 5790 5786 5783 5779 5775 5771 5767 5764 5761 5756 5752 5749 5744 5740 5736 5732 5727 5722 5716 5710 5705 5702 5699 5693 5689 5684 5679 5675 5670 5665 5660 5654 5648 5642 5636 5629 5623 5618 5613 5608 5602 5595 5588 5581 5574 5568 5561 5554 5548 5541 5534 5527 5521 5514 5508 5501 5494 5487 5480 5473 5465 5458 5451 5444 5438 5433 5428 5424 5420 5416 5412 5409 5406 5403 5401 5399 5396 5394 5391 5389 5388
5805 5801 5798 5795 5791 5788 5784 5780 5776 5772 5768 5764 5761 5757 5753 5749 5746 5741 5737 5731 5727 5723 5718 5713 5707 5701 5698 5694 5690 5686 5681 5677 5672 5668 5662 5657 5651 5645 5639 5633 5627 5621 5616 5611 5605 5599 5592 5585 5578 5571 5565 5558 5552 5545 5538 5531 5525 5518 5512 5505 5499 5493 5486 5479 5471 5464 5457 5451 5444 5438 5432 5427 5422 5418 5414 5410 5407 5404 5401 5398 5396 5393 5391 5389 5386 5384
5802 5799 5795 5792 5789 5785 5781 5777 5773 5769 5765 5761 5757 5753 5749 5746 5742 5737 5733 5728 5723 5719 5715 5710 5704 5699 5696 5692 5687 5683 5679 5674 5670 5665 5660 5654 5648 5642 5636 5630 5625 5620 5614 5608 5602 5595 5588 5582 5575 5569 5562 5555 5548 5542 5535 5529 5522 5516 5510 5504 5498 5491 5484 5477 5471 5463 5456 5449 5443 5437 5431 5426 5421 5417 5413 5409 5405 5402 5399 5396 5393 5390 5387 5385 5383 5380
5799 5796 5793 5789 5785 5781 5778 5774 5770 5766 5762 5758 5754 5749 5745 5740 5736 5732 5728 5725 5722 5718 5713 5708 5702 5697 5695 5691 5685 5681 5676 5672 5667 5662 5657 5651 5645 5640 5634 5628 5623 5617 5611 5605 5599 5592 5585 5579 5572 5566 5559 5552 5546 5539 5533 5527 5520 5514 5508 5502 5495 5489 5482 5476 5469 5462 5455 5448 5441 5435 5430 5425 5420 5415 5411 5407 5403 5400 5397 5394 5391 5388 5385 5382 5379 5377
5796 5793 5789 5785 5781 5778 5774 5770 5766 5763 5759 5755 5750 5746 5741 5736 5732 5727 5723 5720 5718 5716 5712 5707 5700 5694 5692 5688 5683 5679 5674 5669 5664 5659 5654 5648 5643 5637 5632 5626 5620 5614 5608 5602 5595 5589 5582 5576 5570 5563 5556 5550 5543 5537 5530 5524 5517 5511 5505 5498 5492 5486 5480 5474 5467 5460 5454 5447 5440 5434 5428 5423 5418 5414 5410 5406 5402 5398 5395 5392 5389 5386 5383 5380 5377 5374
5793 5790 5786 5782 5779 5775 5771 5767 5764 5760 5756 5752 5748 5744 5739 5735 5730 5725 5721 5717 5713 5711 5709 5705 5699 5692 5689 5686 5681 5676 5671 5666 5661 5656 5650 5645 5639 5634 5629 5623 5617 5611 5604 5598 5592 5586 5580 5574 5567 5560 5553 5547 5540 5534 5527 5521 5514 5508 5502 5495 5489 5483 5477 5471 5465 5458 5452 5445 5438 5432 5426 5421 5417 5412 5408 5404 5400 5396 5393 5390 5387 5384 5381 5378 5375 5372
5791 5787 5784 5780 5776 5773 5769 5765 5761 5757 5753 5749 5745 5741 5737 5732 5728 5723 5719 5714 5710 5706 5704 5701 5696 5689 5686 5683 5677 5672 5667 5662 5657 5652 5647 5641 5636 5631 5625 5619 5613 5607 5601 5595 5588 5582 5577 5571 5564 5558 5551 5543 5537 5530 5524 5518 5512 5506 5499 5492 5486 5481 5475 5469 5463 5456 5450 5443 5437 5431 5425 5420 5415 5410 5406 5402 5398 5394 5391 5388 5385 5382 5379 5376 5373 5370
5789 5785 5781 5778 5774 5770 5766 5762 5758 5754 5749 5745 5741 5737 5733 5729 5725 5720 5715 5712 5707 5702 5699 5698 5693 5684 5681 5679 5674 5668 5664 5659 5654 5649 5644 5638 5633 5628 5622 5616 5610 5604 5598 5592 5586 5580 5574 5568 5561 5555 5548 5541 5534 5527 5521 5515 5509 5503 5497 5490 5484 5478 5472 5466 5460 5454 5448 5442 5436 5430 5424 5418 5413 5408 5404 5400 5396 5392 5388 5385 5382 5379 5376 5373 5370 5367
5786 5783 5779 5775 5771 5767 5763 5759 5755 5751 5747 5742 5738 5734 5729 5725 5721 5716 5711 5707 5703 5698 5694 5693 5691 5682 5676 5674 5670 5665 5661 5656 5651 5646 5641 5636 5630 5625 5619 5613 5607 5601 5595 5589 5583 5577 5571 5565 5558 5551 5544 5538 5531 5525 5518 5512 5506 5500 5494 5488 5481 5475 5470 5464 5458 5452 5446 5440 5434 5428 5422 5416 5410 5406 5402 5398 5394 5390 5386 5383 5380 5377 5374 5371 5368 5365
5783 5780 5776 5772 5768 5764 5761 5757 5753 5748 5744 5740 5736 5732 5727 5722 5718 5713 5708 5704 5700 5696 5690 5687 5688 5682 5674 5670 5667 5662 5658 5653 5648 5644 5639 5633 5628 5622 5616 5610 5604 5598 5592 5586 5580 5574 5568 5561 5555 5548 5541 5535 5528 5522 5515 5508 5502 5496 5491 5485 5479 5473 5467 5461 5456 5450 5443 5438 5432 5426 5420 5414 5408 5403 5399 5395 5391 5387 5384 5380 5377 5374 5371 5368 5365 5362
5780 5777 5773 5769 5765 5761 5757 5754 5750 5745 5741 5737 5733 5728 5724 5719 5715 5711 5707 5703 5698 5694 5688 5683 5683 5681 5673 5668 5665 5659 5655 5650 5645 5641 5636 5631 5625 5619 5613 5607 5601 5596 5590 5584 5578 5571 5565 5558 5551 5545 5538 5532 5526 5519 5513 5505 5499 5493 5487 5482 5476 5470 5464 5458 5453 5447 5441 5435 5429 5423 5418 5411 5406 5401 5396 5392 5388 5385 5381 5377 5374 5371 5368 5365 5363 5360
5777 5774 5771 5767 5762 5759 5755 5751 5747 5743 5738 5734 5730 5726 5721 5716 5712 5708 5704 5701 5697 5693 5688 5682 5680 5678 5671 5666 5662 5657 5652 5648 5642 5637 5633 5628 5622 5615 5610 5604 5598 5593 5587 5581 5575 5568 5561 5555 5548 5542 5535 5529 5522 5516 5509 5503 5496 5489 5483 5478 5472 5466 5461 5455 5449 5443 5437 5432 5426 5421 5415 5409 5404 5398 5393 5388 5384 5381 5378 5374 5371 5368 5365 5362 5360 5357
5774 5771 5768 5764 5759 5756 5752 5748 5745 5741 5736 5732 5728 5723 5719 5714 5710 5705 5701 5698 5695 5691 5686 5680 5678 5676 5669 5662 5659 5654 5649 5645 5639 5633 5629 5624 5618 5612 5606 5601 5595 5590 5584 5577 5571 5564 5558 5552 5545 5538 5532 5525 5519 5512 5506 5499 5493 5486 5479 5473 5468 5462 5457 5451 5445 5439 5434 5429 5424 5418 5413 5407 5401 5395 5390 5385 5380 5377 5374 5371 5368 5365 5362 5359 5357 5354
5771 5767 5765 5762 5758 5754 5750 5745 5742 5738 5733 5729 5725 5720 5717 5712 5708 5704 5699 5695 5692 5689 5684 5677 5674 5673 5667 5660 5655 5650 5646 5641 5635 5629 5624 5619 5614 5608 5602 5597 5591 5586 5580 5573 5567 5561 5554 5548 5542 5535 5528 5521 5515 5508 5502 5495 5489 5482 5476 5469 5464 5458 5453 5447 5442 5436 5431 5426 5421 5416 5411 5405 5399 5393 5387 5382 5377 5373 5369 5367 5364 5361 5359 5356 5353 5351
5767 5763 5760 5757 5754 5751 5748 5743 5738 5734 5729 5725 5722 5718 5715 5711 5706 5702 5698 5693 5689 5687 5682 5673 5668 5669 5665 5658 5653 5647 5641 5638 5632 5625 5619 5613 5609 5605 5599 5593 5587 5581 5575 5569 5563 5557 5550 5544 5537 5531 5525 5518 5511 5504 5498 5491 5485 5479 5472 5466 5460 5454 5449 5443 5438 5433 5428 5423 5417 5412 5407 5402 5396 5390 5384 5379 5374 5369 5365 5362 5360 5357 5355 5352 5350 5347
5764 5760 5756 5753 5748 5744 5742 5738 5734 5731 5727 5723 5719 5716 5713 5710 5705 5700 5695 5690 5685 5683 5681 5673 5664 5663 5663 5657 5651 5645 5638 5634 5628 5621 5615 5609 5605 5601 5595 5589 5582 5576 5571 5565 5558 5552 5546 5539 5533 5527 5520 5514 5507 5501 5494 5487 5481 5475 5469 5462 5456 5450 5445 5439 5434 5429 5423 5418 5413 5408 5403 5398 5393 5388 5382 5377 5372 5366 5362 5358 5355 5353 5350 5348 5346 5344
5762 5758 5753 5750 5746 5741 5738 5736 5732 5729 5725 5721 5717 5714 5711 5708 5704 5698 5693 5688 5682 5678 5678 5673 5662 5656 5655 5651 5647 5642 5635 5630 5624 5618 5612 5606 5601 5596 5590 5584 5578 5572 5566 5560 5554 5548 5541 5535 5528 5522 5516 5510 5504 5497 5490 5484 5477 5471 5465 5459 5453 5447 5441 5435 5430 5425 5420 5414 5409 5404 5399 5395 5390 5385 5380 5374 5369 5364 5359 5355 5351 5348 5346 5344 5342 5340
5759 5756 5751 5748 5745 5740 5736 5734 5730 5726 5723 5719 5715 5712 5709 5705 5701 5696 5691 5686 5680 5673 5670 5669 5662 5654 5648 5645 5642 5637 5631 5626 5621 5615 5609 5603 5597 5592 5586 5580 5574 5568 5562 5556 5550 5544 5537 5530 5524 5518 5512 5505 5499 5493 5486 5480 5473 5467 5461 5455 5449 5443 5438 5432 5426 5421 5416 5411 5406 5401 5396 5392 5387 5382 5377 5372 5366 5361 5356 5351 5348 5344 5342 5339 5337 5335
5756 5753 5749 5746 5743 5738 5734 5732 5728 5724 5720 5716 5712 5709 5706 5703 5698 5693 5689 5683 5677 5670 5665 5662 5659 5653 5646 5640 5637 5633 5627 5623 5618 5612 5605 5599 5593 5588 5582 5576 5570 5564 5558 5552 5546 5539 5532 5526 5520 5513 5507 5501 5494 5487 5481 5475 5468 5462 5457 5451 5445 5440 5434 5428 5423 5418 5413 5408 5403 5398 5393 5388 5384 5379 5374 5369 5363 5358 5353 5348 5344 5340 5337 5335 5333 5331
5752 5749 5746 5743 5741 5737 5732 5729 5726 5722 5718 5715 5710 5705 5702 5700 5696 5690 5686 5680 5672 5666 5662 5657 5653 5650 5644 5636 5631 5629 5624 5620 5615 5608 5601 5594 5588 5583 5578 5571 5565 5559 5553 5547 5541 5535 5528 5521 5515 5509 5502 5496 5489 5482 5476 5470 5463 5457 5452 5446 5441 5435 5429 5424 5418 5413 5409 5404 5399 5394 5389 5384 5380 5375 5371 5366 5361 5355 5350 5345 5341 5337 5333 5330 5328 5326
5748 5746 5742 5739 5738 5736 5730 5727 5724 5719 5715 5711 5707 5703 5698 5696 5694 5688 5683 5677 5668 5661 5658 5653 5647 5644 5640 5633 5627 5624 5620 5616 5611 5604 5597 5589 5583 5578 5574 5567 5560 5554 5548 5542 5536 5530 5524 5517 5511 5504 5497 5491 5484 5478 5471 5465 5459 5453 5447 5441 5435 5430 5425 5419 5414 5409 5404 5399 5394 5389 5385 5380 5376 5372 5367 5363 5358 5353 5348 5343 5338 5333 5329 5326 5324 5321
5745 5742 5738 5734 5734 5732 5728 5724 5721 5717 5713 5709 5704 5700 5696 5692 5690 5686 5681 5674 5666 5658 5654 5650 5644 5639 5635 5630 5624 5619 5614 5610 5607 5601 5593 5585 5579 5573 5568 5562 5556 5549 5543 5537 5531 5525 5519 5512 5506 5499 5492 5485 5479 5473 5467 5461 5455 5449 5442 5436 5430 5425 5419 5414 5409 5404 5399 5394 5390 5385 5381 5376 5372 5368 5363 5359 5355 5350 5345 5340 5335 5330 5326 5322 5319 5317
5742 5738 5735 5731 5729 5728 5724 5721 5718 5714 5710 5706 5701 5696 5692 5687 5684 5683 5680 5672 5664 5657 5652 5647 5642 5637 5632 5626 5619 5614 5608 5604 5601 5597 5589 5580 5574 5569 5562 5556 5550 5544 5538 5532 5526 5520 5514 5508 5501 5494 5487 5481 5474 5468 5462 5456 5450 5444 5438 5432 5426 5420 5414 5409 5404 5399 5394 5390 5385 5381 5376 5372 5368 5364 5360 5355 5351 5347 5342 5337 5332 5327 5322 5318 5315 5313
5739 5735 5731 5727 5724 5723 5721 5717 5715 5712 5707 5701 5696 5692 5687 5683 5679 5677 5677 5671 5661 5655 5650 5644 5640 5634 5627 5621 5615 5608 5603 5598 5595 5593 5585 5575 5568 5563 5558 5551 5544 5538 5533 5526 5520 5514 5508 5502 5496 5489 5482 5475 5469 5462 5456 5450 5445 5439 5434 5428 5421 5415 5410 5404 5399 5394 5390 5385 5381 5376 5372 5368 5364 5360 5356 5352 5348 5343 5339 5334 5329 5324 5319 5315 5312 5309
5735 5731 5728 5724 5720 5718 5716 5713 5710 5709 5705 5697 5691 5688 5684 5680 5675 5671 5671 5669 5659 5651 5645 5639 5634 5629 5622 5616 5610 5603 5598 5593 5590 5588 5581 5571 5563 5556 5551 5546 5539 5532 5527 5521 5515 5508 5502 5496 5490 5483 5476 5470 5463 5457 5451 5445 5439 5434 5428 5423 5417 5411 5405 5400 5395 5390 5385 5381 5377 5372 5368 5363 5359 5356 5352 5348 5344 5340 5336 5331 5326 5322 5316 5312 5308 5305
5732 5728 5724 5720 5717 5714 5712 5709 5706 5705 5703 5695 5688 5685 5681 5677 5670 5663 5661 5662 5655 5646 5640 5633 5628 5624 5617 5611 5606 5599 5593 5588 5586 5584 5577 5566 5559 5552 5546 5540 5534 5527 5521 5515 5509 5502 5496 5490 5484 5477 5470 5464 5457 5451 5445 5439 5434 5428 5423 5418 5412 5406 5401 5395 5390 5385 5381 5376 5372 5368 5363 5359 5355 5352 5348 5344 5341 5337 5332 5328 5323 5319 5314 5308 5304 5301
5729 5725 5721 5717 5714 5710 5707 5705 5702 5700 5698 5690 5683 5680 5675 5670 5664 5655 5652 5654 5650 5642 5634 5626 5621 5617 5611 5605 5600 5593 5587 5582 5580 5580 5574 5563 5556 5549 5542 5536 5529 5522 5516 5509 5502 5496 5489 5483 5477 5470 5464 5457 5451 5445 5439 5434 5428 5423 5418 5412 5407 5401 5396 5390 5385 5380 5376 5371 5367 5364 5359 5355 5351 5347 5344 5340 5337 5333 5329 5325 5320 5316 5311 5306 5301 5297
5726 5722 5718 5714 5711 5707 5703 5700 5697 5694 5691 5684 5677 5674 5669 5664 5659 5651 5646 5646 5644 5637 5629 5621 5614 5610 5604 5598 5592 5586 5581 5575 5572 5572 5567 5558 5551 5544 5537 5530 5523 5516 5509 5502 5495 5489 5482 5476 5470 5464 5457 5450 5444 5439 5433 5428 5422 5417 5412 5407 5401 5396 5391 5386 5381 5376 5371 5367 5363 5359 5355 5351 5347 5343 5339 5336 5333 5329 5326 5321 5317 5313 5308 5303 5298 5294
5723 5719 5716 5712 5708 5704 5700 5697 5694 5689 5685 5679 5673 5669 5664 5659 5654 5646 5640 5640 5638 5631 5623 5615 5609 5604 5598 5593 5587 5581 5573 5566 5562 5563 5559 5550 5543 5536 5529 5523 5516 5509 5502 5495 5488 5481 5475 5468 5463 5456 5450 5443 5437 5431 5426 5421 5416 5411 5406 5401 5396 5391 5386 5381 5376 5371 5367 5362 5358 5354 5351 5347 5343 5339 5335 5332 5329 5326 5322 5318 5314 5310 5305 5300 5295 5291
5720 5716 5713 5710 5707 5702 5697 5695 5692 5687 5682 5675 5670 5665 5660 5654 5648 5640 5634 5632 5631 5626 5618 5610 5606 5601 5594 5588 5583 5577 5569 5559 5551 5550 5548 5541 5535 5529 5522 5515 5509 5502 5495 5488 5480 5473 5467 5461 5455 5449 5442 5436 5430 5424 5419 5415 5410 5404 5399 5395 5390 5385 5380 5376 5371 5367 5362 5358 5353 5349 5346 5342 5338 5334 5331 5327 5325 5322 5318 5315 5311 5307 5302 5298 5293 5288
5716 5714 5711 5707 5703 5699 5694 5690 5687 5683 5678 5672 5666 5661 5655 5649 5643 5637 5630 5625 5622 5619 5614 5607 5601 5596 5591 5584 5577 5571 5566 5558 5548 5542 5539 5534 5528 5523 5516 5509 5502 5495 5487 5480 5473 5465 5459 5453 5447 5441 5435 5429 5423 5417 5412 5408 5404 5398 5393 5388 5383 5379 5375 5370 5366 5361 5357 5353 5349 5344 5341 5337 5334 5330 5327 5323 5320 5317 5314 5311 5307 5304 5299 5295 5290 5286
5712 5710 5707 5703 5699 5695 5690 5685 5681 5677 5673 5668 5662 5657 5651 5644 5639 5633 5627 5622 5617 5612 5608 5603 5597 5592 5586 5580 5573 5565 5560 5556 5549 5541 5535 5529 5522 5516 5510 5502 5495 5488 5480 5471 5464 5457 5450 5444 5439 5433 5427 5421 5415 5410 5405 5401 5397 5391 5386 5381 5377 5372 5368 5364 5360 5356 5352 5347 5343 5339 5336 5332 5329 5326 5322 5319 5316 5313 5310 5307 5304 5300 5296 5292 5288 5283
5709 5706 5703 5699 5694 5690 5686 5681 5676 5672 5668 5663 5657 5652 5647 5641 5635 5629 5624 5621 5616 5609 5602 5598 5594 5587 5579 5573 5569 5563 5557 5552 5547 5539 5531 5525 5517 5509 5502 5495 5486 5479 5471 5463 5456 5448 5441 5435 5430 5425 5419 5413 5407 5402 5397 5393 5389 5384 5378 5374 5370 5366 5362 5358 5354 5350 5346 5342 5338 5334 5331 5327 5324 5321 5318 5315 5311 5308 5306 5303 5300 5297 5293 5289 5285 5281
5707 5703 5699 5695 5690 5686 5682 5677 5672 5669 5665 5659 5652 5647 5642 5637 5631 5624 5618 5614 5611 5605 5598 5593 5589 5583 5574 5566 5562 5558 5552 5546 5541 5533 5525 5518 5510 5501 5493 5485 5477 5469 5461 5454 5447 5439 5432 5426 5421 5416 5410 5405 5399 5394 5389 5385 5381 5376 5371 5366 5363 5359 5355 5352 5348 5344 5340 5336 5333 5329 5326 5322 5320 5317 5314 5311 5307 5304 5301 5299 5296 5293 5290 5286 5282 5278
5703 5699 5695 5691 5687 5682 5679 5673 5668 5666 5663 5656 5649 5643 5639 5633 5627 5621 5614 5609 5604 5599 5592 5585 5581 5576 5570 5562 5557 5552 5546 5538 5532 5525 5516 5507 5500 5491 5483 5475 5467 5459 5451 5445 5437 5430 5423 5417 5412 5407 5401 5396 5391 5385 5381 5377 5373 5369 5363 5359 5356 5352 5348 5345 5342 5338 5334 5331 5327 5324 5320 5317 5315 5312 5309 5306 5303 5300 5297 5294 5292 5290 5286 5283 5279 5275
5700 5694 5691 5688 5683 5679 5675 5669 5663 5661 5659 5653 5645 5639 5634 5628 5623 5618 5613 5607 5600 5593 5586 5579 5573 5568 5563 5556 5549 5544 5538 5529 5521 5516 5508 5499 5491 5483 5474 5466 5459 5450 5442 5434 5427 5420 5413 5408 5403 5397 5392 5388 5383 5378 5374 5370 5366 5361 5356 5352 5349 5346 5342 5339 5336 5332 5329 5325 5322 5318 5315 5312 5310 5307 5305 5302 5300 5297 5293 5290 5288 5286 5283 5280 5276 5272
5695 5690 5686 5683 5678 5674 5670 5664 5658 5655 5653 5648 5642 5637 5632 5625 5619 5613 5606 5600 5595 5589 5582 5574 5567 5561 5556 5549 5541 5535 5529 5520 5511 5506 5500 5491 5482 5475 5466 5458 5450 5441 5433 5425 5417 5410 5404 5399 5394 5389 5384 5379 5375 5370 5367 5363 5358 5353 5349 5346 5343 5339 5335 5332 5329 5326 5323 5320 5317 5313 5310 5307 5305 5302 5300 5298 5296 5293 5290 5287 5284 5282 5280 5277 5273 5270
5691 5686 5681 5678 5674 5669 5664 5660 5654 5650 5648 5643 5637 5632 5627 5622 5616 5610 5602 5594 5588 5583 5579 5572 5563 5554 5547 5541 5533 5527 5521 5514 5504 5496 5490 5482 5473 5465 5457 5448 5440 5432 5424 5416 5408 5401 5395 5390 5385 5380 5377 5372 5368 5363 5360 5356 5351 5347 5343 5340 5336 5332 5329 5326 5323 5320 5317 5314 5311 5308 5305 5302 5299 5297 5295 5293 5291 5289 5286 5283 5281 5278 5276 5273 5270 5267
5686 5681 5676 5672 5669 5665 5660 5655 5650 5647 5645 5640 5631 5624 5619 5613 5608 5604 5598 5590 5584 5578 5574 5570 5563 5553 5542 5532 5523 5517 5513 5507 5498 5489 5482 5473 5464 5455 5447 5439 5431 5423 5415 5407 5400 5393 5386 5381 5376 5372 5369 5365 5361 5357 5353 5349 5344 5340 5337 5333 5328 5325 5322 5319 5316 5314 5311 5309 5306 5303 5300 5297 5294 5292 5290 5288 5286 5285 5282 5280 5277 5275 5272 5269 5267 5264
5682 5677 5672 5668 5665 5661 5655 5649 5643 5639 5636 5633 5627 5620 5614 5607 5602 5597 5591 5585 5580 5573 5567 5562 5558 5552 5543 5532 5519 5509 5503 5498 5491 5482 5475 5466 5456 5446 5438 5429 5422 5415 5408 5401 5393 5387 5379 5372 5367 5363 5360 5356 5352 5348 5345 5341 5337 5333 5330 5325 5321 5318 5315 5312 5310 5307 5305 5303 5301 5298 5295 5292 5289 5287 5285 5283 5282 5280 5278 5276 5274 5271 5269 5266 5263 5261
5677 5673 5668 5663 5659 5655 5649 5643 5637 5632 5628 5625 5620 5615 5609 5602 5596 5591 5586 5580 5574 5568 5560 5551 5544 5539 5535 5530 5519 5506 5495 5488 5481 5473 5466 5459 5450 5440 5431 5423 5414 5407 5401 5394 5386 5379 5372 5365 5359 5355 5351 5347 5343 5339 5337 5334 5330 5326 5322 5318 5314 5311 5308 5306 5303 5301 5299 5297 5295 5293 5290 5287 5284 5282 5280 5279 5277 5275 5273 5271 5269 5267 5265 5263 5260 5257